Regional Weather Roundup
Issued by NWS

Home | Current Version | Previous Version | Text Only | Print | Product List | Glossary Off
Versions: 1 2 3 4 5 6 7 8 9 10 11 12 13 14 15 16 17 18 19 20 21 22 23 24 25 26 27 28 29 30 31 32 33 34 35 36 37 38 39 40 41 42 43 44 45 46 47 48 49 50

000
ASUS45 KTFX 200004
RWRMT
MONTANA HOURLY WEATHER ROUNDUP
NATIONAL WEATHER SERVICE GREAT FALLS MT
604 PM MDT SUN OCT 19 2014

NOTE: "FAIR" INDICATES FEW OR NO CLOUDS BELOW 12000 FEET WITH NO
SIGNIFICANT WEATHER AND/OR OBSTRUCTIONS TO VISIBILITY.

* THESE STATIONS ARE NOT UNDER NWS QUALITY CONTROL. THEY DO NOT
   REPORT WEATHER SUCH AS PRECIPITATION OR FOG.

MTZ001>007-043-200100-
WEST OF THE DIVIDE
CITY           SKY/WX    TMP DP  RH WIND       PRES   REMARKS
KALISPELL      CLEAR     63  43  48 SW3       29.92F
MISSOULA       CLEAR     64  41  43 W3        29.92F
BUTTE          CLEAR     64  30  28 S8        30.02S
MULLAN PASS    CLEAR     54  36  51 S3        30.01S
* ESSEX        N/A       52  45  77 S1         N/A
* LINCOLN      N/A       69  33  26 W5G11      N/A
* POLSON       N/A       58  43  58 N2         N/A
* RONAN APT    CLEAR     64  46  52 NW5        N/A
* SEELEY LAKE  N/A       70  34  27 SW3G8      N/A
* THOMP F APT  CLEAR     61  24  24 S7G12      N/A
$$

MTZ008-052>055-200100-
SOUTHWEST MONTANA
CITY           SKY/WX    TMP DP  RH WIND       PRES   REMARKS
BOZEMAN        CLEAR     63  41  45 SW6       29.99F
DILLON         CLEAR     70  32  25 CALM      30.00S
W YELLOWSTONE  CLEAR     57  16  20 S9G16     30.14S
* THREE FORKS  CLEAR     70  45  41 N/A        N/A
* BOULDER HILL N/A       62  29  29 S7         N/A
* MONIDA PASS  N/A       56  28  34 SE11G17    N/A
* RAYNOLDS PAS N/A       62  47  58 S9         N/A
* WHITEHALL    N/A       71  32  24 E3         N/A
* WISE RIVER   N/A       65  29  26 S7         N/A
$$

MTZ009>010-012-014-046-048-049-054-200100-
EAST SLOPES AND CENTRAL MONTANA
CITY           SKY/WX    TMP DP  RH WIND       PRES   REMARKS
CUT BANK       CLEAR     66  36  33 W13       29.88S
GREAT FALLS    CLEAR     66  30  26 SW12      29.90S
HELENA         CLEAR     66  37  34 CALM      29.95S
* CONRAD       CLEAR     73  34  24 N/A        N/A
* DEARBORN     N/A       73  32  22 SE2G15     N/A
* EAST GLACIER N/A       61  31  32 W14G24     N/A
* MONARCH      N/A       64  23  21 SW9        N/A
* PENDROY      N/A       67  31  26 NE4        N/A
* ROGERS PASS  N/A       62  28  28 SE10G17    N/A
* SAINT MARY   N/A       64  32  30 SW9G20     N/A
* SWEET GRASS  N/A       68  31  25 S12        N/A
$$

MTZ011-013-016-021-035-040-045-047-050-051-200100-
NORTH CENTRAL MONTANA
CITY           SKY/WX    TMP DP  RH WIND       PRES   REMARKS
HAVRE          CLEAR     66  43  43 E7        29.88F
LEWISTOWN      CLEAR     64  36  35 S9        29.96S
* CHINOOK      PTCLDY    66  41  40 SE8       29.89F
* FORT BENTON  CLEAR     73  34  24 S5        29.88S
* CHESTER      N/A       71  37  29 SE5        N/A
* DENTON       N/A       68  37  32 S8         N/A
* GEYSER       N/A       70  40  34 SE6        N/A
* JUDITH GAP   N/A       63  37  38 SE9        N/A
* LOMA         N/A       70  41  35 NE9        N/A
$$

MTZ017>020-022>027-061-062-200100-
NORTHEAST MONTANA
CITY           SKY/WX    TMP DP  RH WIND       PRES   REMARKS
GLASGOW        PTCLDY    61  43  52 SE9       29.94F
GLENDIVE       CLEAR     64  37  37 S6        30.00F
JORDAN         PTCLDY    64  39  40 SE5       29.95F
SIDNEY         CLEAR     61  39  44 CALM      30.00S
WOLF POINT     PTCLDY    61  43  52 CALM      29.97S
* BEAVER HILL  N/A       65  37  36 E1         N/A
* CIRCLE       N/A       69  44  41 N/A        N/A
* LINDSAY DVD  N/A       64  33  31 SE2        N/A
* NAVAJO       N/A       60  38  44 S6         N/A
$$

MTZ028>042-056>058-200100-
SOUTHCENTRAL AND SOUTHEAST MONTANA
CITY           SKY/WX    TMP DP  RH WIND       PRES   REMARKS
BAKER          PTCLDY    63  36  37 CALM      30.03S
BILLINGS       FAIR      70  34  27 CALM      29.98S
LIVINGSTON     CLEAR     68  34  28 NW6       29.98F
MILES CITY     PTCLDY    66  39  37 SE5       29.98S
* LAUREL APT   CLEAR     72  34  25 N/A        N/A
* ROUNDUP APT  CLEAR     72  32  23 N/A        N/A
* ALZADA       N/A       64  39  40 N5         N/A
* HYSHAM       N/A       65  33  30 S1         N/A
* LAME DEER    N/A       64  36  35 E7         N/A
* REED POINT   N/A       65  31  28 SE2        N/A
* ROSCOE HILL  N/A       63  26  25 E7         N/A
$$

REGIONAL REPORTS...DAKOTAS
CITY           SKY/WX    TMP DP  RH WIND       PRES   REMARKS
WILLISTON      CLEAR     64  37  37 SE3       29.98S
DICKINSON      CLEAR     61  36  39 CALM      30.00R
BEACH          N/A       59  39  48 CALM      30.02S
CROSBY         CLEAR     57  36  46 SW7       29.98R
TIOGA          CLEAR     54  32  43 SW7       30.02R
BISMARCK       CLEAR     64  37  37 NW7       29.98R
GRAND FORKS    CLEAR     52  41  66 CALM      29.86R
FARGO          CLEAR     57  39  51 N7        29.88R
RAPID CITY     CLEAR     63  41  45 CALM      30.05R
$$

REGIONAL REPORTS...WYOMING/IDAHO/WASHINGTON
CITY           SKY/WX    TMP DP  RH WIND       PRES   REMARKS
GILLETTE       CLEAR     61  39  44 SE7       30.06R
SHERIDAN       CLEAR     68  34  28 CALM      30.02S
CODY           CLEAR    N/A N/A N/A E8        30.03S
YELLOWSTONE LA CLEAR     54  19  25 CALM      30.23R
MULLAN PASS    CLEAR     54  36  51 S3        30.01S
SAND POINT     PTCLDY    63  50  63 CALM      29.86F
SPOKANE        MOCLDY    68  46  45 E12       29.81F

$$




USA.gov is the U.S. government's official web portal to all federal, state and local government web resources and services.